Weather History for KGOV - December, 2013

Change the Weather History Date:

Monday, December 9, 2013

  Actual Average (KHTL) Record (KHTL)
Temperature  
Mean Temperature 18 °F 26 °F  
Max Temperature 28 °F 32 °F 57 °F (1946)
Min Temperature 7 °F 20 °F -4 °F (1934)
Degree Days  
Heating Degree Days 47 39  
Month to date heating degree days 339  
Since 1 July heating degree days 2222  
Moisture  
Dew Point 15 °F    
Average Humidity 84    
Maximum Humidity 96    
Minimum Humidity 67    
Precipitation  
Precipitation 0.00 in 0.06 in 0.65 in (2008)
Month to date precipitation 0.56  
Year to date precipitation 27.66  
Snow  
Snow 0.00 in 0.50 in 8.40 in (2008)
Month to date snowfall 4.5  
Since 1 July snowfall 13.6  
Snow Depth -    
Sea Level Pressure  
Sea Level Pressure 29.83 in    
Wind  
Wind Speed 7 mph (WSW)    
Max Wind Speed 20 mph    
Max Gust Speed 33 mph    
Visibility 4 miles    
Events Snow    
T = Trace of Precipitation, MM = Missing Value Source: NWS Daily Summary

Daily Weather History Graph

Daily Weather History Graph

Search for Another Location

Airport or City:

Trip Planner

Search our weather history database for the weather conditions in past years. The results will help you decide how hot, cold, wet, or windy it might be!

Date:

Astronomy

Dec. 09, 2013 Rise Set
Actual Time 8:04 AM EST 4:58 PM EST
Civil Twilight 7:31 AM EST 5:31 PM EST
Nautical Twilight 6:54 AM EST 6:08 PM EST
Astronomical Twilight 6:18 AM EST 6:43 PM EST
Moon 12:42 PM EST (12/9) No Moon Set
Length of Visible Light 10h 00m
Length of Day
8h 54m
Waxing Crescent, 51% of the Moon is Illuminated
Dec 9
Waxing Crescent
Dec 17
Full
Dec 25
Last Quarter
Jan 1
New
Jan 7
First Quarter

Hourly Weather History & Observations

Time (EST) Temp. Windchill Dew Point Humidity Pressure Visibility Wind Dir Wind Speed Gust Speed Precip Events Conditions
12:15 AM 18.1 °F 7.9 °F 15.8 °F 91% 29.96 in 1.8 mi East 8.1 mph - N/A Snow Light Snow
12:35 AM 18.5 °F 9.3 °F 16.5 °F 92% 29.94 in 2.5 mi East 6.9 mph - N/A Snow Light Snow
12:55 AM 18.3 °F 11.5 °F 16.3 °F 92% 29.94 in 2.0 mi East 4.6 mph - N/A Snow Light Snow
1:15 AM 18.7 °F 11.9 °F 16.7 °F 92% 29.91 in 1.5 mi East 4.6 mph - N/A Snow Light Snow
1:35 AM 19.0 °F 12.3 °F 17.4 °F 93% 29.89 in 1.2 mi ENE 4.6 mph - N/A Snow Snow
1:55 AM 19.2 °F 10.2 °F 17.6 °F 93% 29.87 in 1.8 mi East 6.9 mph - N/A Snow Light Snow
2:14 AM 19.4 °F 14.3 °F 18.0 °F 94% 29.86 in 2.0 mi East 3.5 mph - N/A Snow Light Snow
2:35 AM 20.3 °F 15.4 °F 18.5 °F 93% 29.85 in 2.5 mi ESE 3.5 mph - N/A Snow Light Snow
2:55 AM 20.3 °F 13.8 °F 18.7 °F 93% 29.84 in 7.0 mi ESE 4.6 mph - N/A Snow Light Snow
3:15 AM 20.3 °F - 18.9 °F 94% 29.85 in 7.0 mi Calm Calm - N/A Snow Light Snow
3:35 AM 20.3 °F - 18.9 °F 94% 29.84 in 7.0 mi Calm Calm - N/A Snow Light Snow
3:54 AM 20.1 °F - 18.7 °F 94% 29.82 in 5.0 mi Calm Calm - N/A Snow Light Snow
4:15 AM 20.1 °F - 18.9 °F 95% 29.81 in 4.0 mi Calm Calm - N/A Snow Light Snow
4:35 AM 20.3 °F - 19.2 °F 96% 29.79 in 4.0 mi Calm Calm - N/A Snow Light Snow
4:55 AM 20.3 °F - 19.0 °F 95% 29.78 in 5.0 mi Calm Calm - N/A Snow Light Snow
5:15 AM 20.7 °F - 19.4 °F 95% 29.77 in 5.0 mi Calm Calm - N/A Snow Light Snow
5:35 AM 20.3 °F - 18.3 °F 92% 29.77 in 7.0 mi Calm Calm - N/A Snow Light Snow
5:55 AM 20.3 °F - 19.0 °F 95% 29.76 in 7.0 mi Calm Calm - N/A Snow Light Snow
6:15 AM 20.3 °F - 19.2 °F 96% 29.76 in 7.0 mi Calm Calm - N/A Snow Light Snow
6:35 AM 20.3 °F - 19.0 °F 95% 29.75 in 7.0 mi Calm Calm - N/A Snow Light Snow
6:55 AM 20.3 °F 15.4 °F 19.0 °F 95% 29.75 in 5.0 mi WSW 3.5 mph - N/A Snow Light Snow
7:15 AM 21.0 °F 12.4 °F 19.4 °F 93% 29.75 in 2.0 mi WSW 6.9 mph - N/A Snow Light Snow
7:35 AM 21.7 °F 11.5 °F 20.1 °F 93% 29.75 in 2.0 mi WSW 9.2 mph - N/A Snow Light Snow
7:55 AM 21.7 °F 13.2 °F 19.8 °F 92% 29.76 in 4.0 mi WSW 6.9 mph - N/A Snow Light Snow
8:15 AM 21.0 °F 12.4 °F 19.0 °F 92% 29.75 in 4.0 mi WSW 6.9 mph - N/A Snow Light Snow
8:35 AM 21.2 °F 12.6 °F 19.4 °F 93% 29.75 in 3.0 mi WSW 6.9 mph - N/A Snow Light Snow
8:55 AM 21.2 °F 14.9 °F 19.4 °F 93% 29.75 in 2.5 mi WSW 4.6 mph - N/A Snow Light Snow
9:15 AM 21.2 °F 13.6 °F 19.4 °F 93% 29.75 in 7.0 mi SW 5.8 mph - N/A Snow Light Snow
9:35 AM 21.7 °F 13.2 °F 19.8 °F 92% 29.78 in 7.0 mi WSW 6.9 mph - N/A Snow Light Snow
9:55 AM 23.0 °F 13.9 °F 21.0 °F 92% 29.78 in 5.0 mi WSW 8.1 mph - N/A Snow Light Snow
10:15 AM 23.0 °F 14.7 °F 20.8 °F 91% 29.78 in 4.0 mi WSW 6.9 mph - N/A Snow Light Snow
10:35 AM 24.8 °F 17.9 °F 22.3 °F 90% 29.79 in 2.5 mi WSW 5.8 mph - N/A Snow Light Snow
10:55 AM 25.5 °F 16.9 °F 22.3 °F 88% 29.79 in 5.0 mi WSW 8.1 mph - N/A Snow Light Snow
11:15 AM 26.6 °F 18.2 °F 22.6 °F 85% 29.79 in 4.0 mi WSW 8.1 mph - N/A Snow Light Snow
11:35 AM 28.0 °F 18.6 °F 24.8 °F 88% 29.79 in 3.0 mi WSW 10.4 mph - N/A Snow Light Snow
11:55 AM 28.0 °F 18.6 °F 23.9 °F 84% 29.78 in 4.0 mi WSW 10.4 mph 17.3 mph N/A Snow Light Snow
12:15 PM 25.9 °F 15.3 °F 21.9 °F 85% 29.77 in 2.0 mi SW 11.5 mph 18.4 mph N/A Snow Light Snow
12:35 PM 28.0 °F 18.1 °F 23.7 °F 84% 29.76 in 2.5 mi WSW 11.5 mph 18.4 mph N/A Snow Light Snow
12:55 PM 28.0 °F 17.0 °F 22.3 °F 79% 29.75 in 3.0 mi WSW 13.8 mph 24.2 mph N/A Snow Light Snow
1:15 PM 27.0 °F 15.6 °F 21.0 °F 78% 29.75 in 5.0 mi WSW 13.8 mph 24.2 mph N/A Snow Light Snow
1:35 PM 25.5 °F 12.9 °F 18.5 °F 75% 29.75 in 7.0 mi SW 16.1 mph 24.2 mph N/A Snow Light Snow
1:55 PM 23.9 °F 11.2 °F 17.4 °F 76% 29.76 in 4.0 mi WSW 15.0 mph 26.5 mph N/A Snow Light Snow
2:15 PM 23.0 °F 11.1 °F 16.5 °F 76% 29.77 in 3.0 mi SW 12.7 mph 24.2 mph N/A Snow Light Snow
2:34 PM 23.0 °F 10.6 °F 16.7 °F 77% 29.77 in 3.0 mi WSW 13.8 mph 21.9 mph N/A Snow Light Snow
2:55 PM 21.4 °F 8.5 °F 16.9 °F 83% 29.77 in 1.2 mi SW 13.8 mph 20.7 mph N/A Snow Light Snow
3:15 PM 21.0 °F 7.6 °F 15.4 °F 79% 29.79 in 2.0 mi WSW 15.0 mph 24.2 mph N/A Snow Light Snow
3:34 PM 20.1 °F 6.9 °F 15.3 °F 81% 29.79 in 2.0 mi SW 13.8 mph 23.0 mph N/A Snow Light Snow
3:55 PM 19.4 °F 6.6 °F 12.2 °F 74% 29.81 in 3.0 mi WSW 12.7 mph 26.5 mph N/A Snow Light Snow
4:15 PM 18.9 °F 6.5 °F 11.8 °F 74% 29.82 in 2.5 mi WSW 11.5 mph 25.3 mph N/A Snow Light Snow
4:34 PM 18.3 °F 6.6 °F 11.1 °F 73% 29.83 in 5.0 mi WSW 10.4 mph 21.9 mph N/A Snow Light Snow
4:55 PM 18.1 °F 2.4 °F 9.5 °F 69% 29.83 in 5.0 mi WSW 18.4 mph 25.3 mph N/A   Haze
5:15 PM 18.0 °F 6.1 °F 11.1 °F 75% 29.84 in 5.0 mi SW 10.4 mph 17.3 mph N/A Snow Light Snow
5:34 PM 18.0 °F 6.1 °F 12.2 °F 78% 29.84 in 4.0 mi WSW 10.4 mph 16.1 mph N/A Snow Light Snow
5:55 PM 18.0 °F 4.8 °F 13.1 °F 81% 29.84 in 2.0 mi SW 12.7 mph 23.0 mph N/A Snow Light Snow
6:15 PM 18.0 °F 4.8 °F 14.9 °F 88% 29.85 in 1.0 mi WSW 12.7 mph 18.4 mph N/A Snow Snow
6:34 PM 18.0 °F 7.7 °F 14.5 °F 86% 29.85 in 1.8 mi WSW 8.1 mph 21.9 mph N/A Snow Light Snow
6:55 PM 18.0 °F 4.8 °F 12.2 °F 78% 29.86 in 3.0 mi WSW 12.7 mph 24.2 mph N/A Snow Light Snow
7:15 PM 16.0 °F 2.9 °F 12.7 °F 87% 29.87 in 0.8 mi WSW 11.5 mph 23.0 mph N/A Snow Snow
7:34 PM 15.8 °F 0.9 °F 9.5 °F 76% 29.87 in 5.0 mi WSW 15.0 mph 23.0 mph N/A   Haze
7:55 PM 15.4 °F 1.0 °F 8.6 °F 74% 29.87 in 7.0 mi WSW 13.8 mph 27.6 mph N/A   Scattered Clouds
8:15 PM 15.4 °F -0.6 °F 8.6 °F 74% 29.88 in 5.0 mi WSW 17.3 mph 24.2 mph N/A   Haze
8:34 PM 15.3 °F -0.9 °F 8.6 °F 75% 29.89 in 4.0 mi West 17.3 mph 29.9 mph N/A Snow Light Snow
8:55 PM 13.3 °F -4.4 °F 5.2 °F 70% 29.90 in 5.0 mi West 19.6 mph 33.4 mph N/A   Haze
9:15 PM 12.9 °F -3.4 °F 4.6 °F 70% 29.91 in 5.0 mi WSW 16.1 mph 26.5 mph N/A Snow Light Snow
9:34 PM 12.9 °F -2.8 °F 6.4 °F 75% 29.92 in 3.0 mi WSW 15.0 mph 20.7 mph N/A Snow Light Snow
9:55 PM 12.9 °F -3.9 °F 6.6 °F 76% 29.92 in 2.5 mi WSW 17.3 mph 25.3 mph N/A Snow Light Snow
10:14 PM 10.6 °F -4.5 °F 2.5 °F 70% 29.92 in 7.0 mi West 12.7 mph 24.2 mph N/A   Scattered Clouds
10:35 PM 10.4 °F -4.1 °F 1.9 °F 69% 29.93 in 10.0 mi West 11.5 mph 19.6 mph N/A   Clear
10:55 PM 10.0 °F -6.5 °F 1.9 °F 70% 29.94 in 10.0 mi West 15.0 mph 20.7 mph N/A   Clear
11:15 PM 9.1 °F -8.2 °F 0.5 °F 68% 29.94 in 5.0 mi West 16.1 mph 25.3 mph N/A   Haze
11:35 PM 8.6 °F -7.7 °F -0.4 °F 67% 29.94 in 7.0 mi WSW 13.8 mph 25.3 mph N/A   Scattered Clouds
11:55 PM 7.7 °F -8.2 °F -1.3 °F 67% 29.95 in 10.0 mi WSW 12.7 mph 20.7 mph N/A   Scattered Clouds